Location: Mahannah Oil Field
(37.4664°N, 96.6003°W)
Time: 02:37:22
(UTC+00:00)

Tiros 1 despin weight - Pass Details

Date: 24 January 2021
Orbit: 593 x 642 km, 48.2° (Epoch: 02 March)

Event Time Altitude Azimuth Distance (km) Brightness Sun altitude
Rises 18:18:05 0° 181° (S) 2,902 ? 33.3°
Reaches altitude 10° 18:22:02 10° 147° (SSE) 1,988 ? 33.4°
Maximum altitude 18:23:27 11° 129° (SE) 1,897 ? 33.4°
Drops below altitude 10° 18:24:53 10° 111° (ESE) 1,982 ? 33.4°
Sets 18:28:47 0° 77° (ENE) 2,879 ? 33.5°
